[[{"header":{"parameterUnit":"m.s-1","parameterCategory":1,"la1":30.2991,"la2":30.254,"lo1":-89.0895,"lo2":-89.0444,"dy":0.0017,"dx":0.0017,"nx":28,"ny":28,"refTime":"2024-08-18T21:00:00:Z","depth":0,"parameterNumber":2,"parameterNumberName":"U-component_of_WINDS"},"data":[0,0,0,0,0,0,0,0,0,0,0,0,0,0,0,0,0,0,0,0,0,0,0,0,0,0,0,0,0,0,0,0,0,0,0,0,0,0,0,0,0,0,0,0,0,0,0,0,0,0,0,0,0,0,0,0,0,0,-1.8222,-1.8223,0,-1.8278,-1.8278,-1.8279,-1.8277,-1.8276,-1.8275,-1.8275,-1.8331,-1.8333,-1.8335,0,0,0,0,0,0,0,0,0,0,0,0,0,-1.8113,-1.8115,-1.8222,-1.8223,-1.8223,-1.8278,-1.8278,-1.8279,-1.8277,-1.8276,-1.8275,-1.8274,-1.833,-1.8333,-1.8336,0,0,0,0,0,0,0,0,0,0,0,0,0,-1.8164,-1.8116,-1.8222,-1.8229,-1.823,-1.8277,-1.8278,-1.8279,-1.8277,-1.8276,-1.8275,-1.8274,-1.8329,-1.8333,-1.8336,-1.838,0,0,-1.8346,-1.8348,0,0,0,0,0,0,0,0,-1.8161,-1.8168,-1.8227,-1.8228,-1.823,-1.8269,-1.8261,-1.8313,-1.8278,-1.8259,-1.8275,-1.8273,-1.8311,-1.8316,-1.8329,-1.8382,-1.8385,-1.8346,-1.8348,-1.835,-1.8351,0,0,0,0,0,0,0,-1.8158,-1.8166,-1.8244,-1.8228,-1.823,-1.8229,-1.8235,-1.8271,-1.8291,-1.8261,-1.8261,-1.8268,-1.8312,-1.8326,-1.833,-1.8385,-1.8346,-1.8349,-1.8351,-1.8353,-1.8479,-1.848,0,0,0,0,0,0,-1.8153,-1.8163,-1.8242,-1.8246,-1.8192,-1.8232,-1.8239,-1.8258,-1.8291,-1.8295,-1.8268,-1.8267,-1.8321,-1.8326,-1.8332,-1.8387,-1.835,-1.8353,-1.8355,-1.8477,-1.8479,-1.848,0,0,0,0,0,0,-1.815,-1.816,-1.824,-1.8204,-1.8214,-1.8235,-1.8257,-1.8259,-1.8273,-1.8297,-1.83,-1.8279,-1.832,-1.8328,-1.8368,-1.8389,-1.8354,-1.8357,-1.8476,-1.8478,-1.848,-1.8496,0,0,0,0,0,0,-1.8147,-1.8159,-1.8176,-1.8205,-1.8216,-1.8275,-1.8258,-1.8261,-1.8279,-1.8278,-1.8307,-1.8311,-1.832,-1.8363,-1.8372,-1.8393,-1.836,-1.8474,-1.8477,-1.8479,-1.8494,-1.8498,-1.8502,0,0,0,0,0,-1.8143,-1.8178,-1.8177,-1.8186,-1.8238,-1.8276,-1.8283,-1.8292,-1.8281,-1.8298,-1.8313,-1.831,-1.8385,-1.8367,-1.8377,-1.8399,-1.8473,-1.8476,-1.8479,-1.8492,-1.8497,-1.8502,0,0,0,0,0,0,-1.815,-1.8182,-1.8181,-1.8225,-1.8248,-1.8276,-1.8298,-1.8298,-1.8324,-1.8322,-1.8332,-1.8339,-1.838,-1.8393,-1.8373,-1.8444,-1.8427,-1.8432,-1.8434,-1.8439,-1.8444,-1.844,-1.8363,0,0,0,0,0,-1.8157,-1.8186,-1.8211,-1.8248,-1.826,-1.8277,-1.8294,-1.8299,-1.8323,-1.8333,-1.8351,-1.8374,-1.8403,-1.8422,-1.8449,-1.8495,-1.8502,-1.8515,-1.8519,-1.8523,-1.8527,-1.8554,-1.8561,-1.8491,-1.849,-1.849,0,0,-1.8171,-1.8192,-1.8209,-1.825,-1.8269,-1.8299,-1.8285,-1.8317,-1.8339,-1.8338,-1.8378,-1.8391,-1.8418,-1.8462,-1.8482,-1.8474,-1.8548,-1.8527,-1.8529,-1.8532,-1.8558,-1.8564,-1.857,-1.8493,-1.8492,-1.8492,0,0,-1.8213,-1.8231,-1.8264,-1.8283,-1.8311,-1.8323,-1.833,-1.8358,-1.8368,-1.8408,-1.8408,-1.8434,-1.8483,-1.8503,-1.8519,-1.8569,-1.8567,-1.8577,-1.86,-1.8626,-1.8631,-1.8636,-1.8655,-1.8662,-1.8581,-1.8581,-1.8581,0,-1.8227,-1.8272,-1.8281,-1.8314,-1.8332,-1.8333,-1.8367,-1.8384,-1.842,-1.8433,-1.8424,-1.8486,-1.8504,-1.8553,-1.8565,-1.8578,-1.8588,-1.8575,-1.863,-1.8635,-1.864,-1.8658,-1.8665,-1.8583,-1.8582,-1.8582,-1.8582,0,-1.8289,-1.832,-1.8344,-1.8379,-1.84,-1.8433,-1.8448,-1.8467,-1.8471,-1.8483,-1.8525,-1.8546,-1.8579,-1.859,-1.8594,-1.864,-1.8635,-1.8627,-1.8611,-1.8647,-1.8665,-1.8672,-1.8584,-1.8584,-1.8583,-1.8583,0,0,-1.8338,-1.8378,-1.8386,-1.8403,-1.8434,-1.8459,-1.8492,-1.8524,-1.8542,-1.8566,-1.8595,-1.8636,-1.863,-1.8649,-1.8654,-1.8677,-1.8716,-1.8667,-1.8668,-1.8677,-1.8771,-1.8777,-1.8785,-1.8715,-1.8716,-1.8717,-1.8769,0,-1.8384,-1.8443,-1.8453,-1.8505,-1.8535,-1.8536,-1.8565,-1.8587,-1.8599,-1.8626,-1.8639,-1.867,-1.8658,-1.867,-1.8692,-1.8707,-1.8736,-1.8703,-1.8743,-1.8744,-1.8738,-1.8794,-1.8801,-1.8848,-1.8776,-1.8777,-1.8778,0,-1.8446,-1.8473,-1.8529,-1.8557,-1.857,-1.8596,-1.8627,-1.8652,-1.8677,-1.8685,-1.8706,-1.8709,-1.8744,-1.8725,-1.8774,-1.8751,-1.8768,-1.8778,-1.878,-1.8785,-1.8764,-1.8802,-1.8864,-1.8871,-1.8788,-1.8787,-1.8787,0,-1.8478,-1.8528,-1.8568,-1.8582,-1.8615,-1.8634,-1.8648,-1.8673,-1.8692,-1.8719,-1.8731,-1.8762,-1.8778,-1.8802,-1.8813,-1.8798,-1.8861,-1.8843,-1.8869,-1.8869,-1.8884,-1.8883,-1.895,-1.8892,-1.8892,-1.8892,-1.8891,0,-1.8529,-1.8564,-1.8583,-1.8608,-1.8647,-1.8657,-1.8695,-1.8709,-1.8731,-1.8759,-1.876,-1.8786,-1.8798,-1.8826,-1.8835,-1.8875,-1.8882,-1.8889,-1.8892,-1.889,-1.889,-1.8903,-1.89,-1.8893,-1.8893,-1.8893,-1.8892,0,-1.8572,-1.8586,-1.863,-1.8659,-1.8666,-1.8694,-1.8718,-1.8742,-1.8754,-1.879,-1.8798,-1.8817,-1.885,-1.8863,-1.8903,-1.8909,-1.8956,-1.8954,-1.8948,-1.8949,-1.8975,-1.8973,-1.9054,-1.9065,-1.8998,-1.8998,-1.8999,0,-1.8605,-1.8632,-1.8663,-1.8682,-1.8698,-1.8728,-1.8748,-1.8759,-1.8779,-1.8811,-1.8831,-1.8864,-1.8892,-1.8945,-1.8962,-1.8993,-1.8993,-1.902,-1.8998,-1.8996,-1.8996,-1.8995,-1.8998,-1.9024,-1.9025,-1.9025,-1.9026,0,-1.8663,-1.8669,-1.8697,-1.8729,-1.8753,-1.8778,-1.8802,-1.8817,-1.8832,-1.8855,-1.8889,-1.891,-1.8952,-1.8985,-1.9017,-1.9032,-1.9032,-1.9032,-1.904,-1.904,-1.9036,-1.904,-1.896,-1.9031,-1.903,-1.903,-1.903,-1.9029,-1.8703,-1.8727,-1.8754,-1.8786,-1.8805,-1.8828,-1.8853,-1.8868,-1.8897,-1.8932,-1.8936,-1.8973,-1.8998,-1.9041,-1.9058,-1.9087,-1.908,-1.9091,-1.9094,-1.9098,-1.91,-1.903,-1.9093,-1.9092,-1.9092,-1.9092,-1.9092,0,-1.8762,-1.8779,-1.8809,-1.8843,-1.8869,-1.8866,-1.8893,-1.8914,-1.8947,-1.8971,-1.8998,-1.9037,-1.907,-1.9089,-1.9122,-1.9142,-1.9142,-1.915,-1.915,-1.9153,-1.9104,-1.9094,-1.9149,-1.9149,-1.9149,-1.9149,-1.9149,-1.9149,-1.8796,-1.8838,-1.8847,-1.8898,-1.8914,-1.8951,-1.8967,-1.8989,-1.9008,-1.9052,-1.9079,-1.9092,-1.9114,-1.9148,-1.9178,-1.9183,-1.9196,-1.9204,-1.9209,-1.9162,-1.9157,-1.9151,-1.9142,-1.9206,-1.9206,-1.9256,-1.9257,-1.9257]},{"header":{"parameterUnit":"m.s-1","parameterCategory":1,"la1":30.2991,"la2":30.254,"lo1":-89.0895,"lo2":-89.0444,"dy":0.0017,"dx":0.0017,"nx":28,"ny":28,"refTime":"2024-08-18T21:00:00:Z","depth":0,"parameterNumber":3,"parameterNumberName":"V-component_of_WINDS"},"data":[0,0,0,0,0,0,0,0,0,0,0,0,0,0,0,0,0,0,0,0,0,0,0,0,0,0,0,0,0,0,0,0,0,0,0,0,0,0,0,0,0,0,0,0,0,0,0,0,0,0,0,0,0,0,0,0,0,0,-2.7576,-2.7576,0,-2.7584,-2.7584,-2.7584,-2.7539,-2.7538,-2.7536,-2.7535,-2.7542,-2.7544,-2.7545,0,0,0,0,0,0,0,0,0,0,0,0,0,-2.7521,-2.7522,-2.7576,-2.7576,-2.7576,-2.7584,-2.7584,-2.7584,-2.7539,-2.7537,-2.7536,-2.7534,-2.7542,-2.7544,-2.7545,0,0,0,0,0,0,0,0,0,0,0,0,0,-2.7538,-2.7523,-2.7576,-2.7555,-2.7553,-2.7584,-2.7584,-2.7584,-2.7539,-2.7537,-2.7536,-2.7534,-2.7541,-2.7544,-2.7546,-2.7597,0,0,-2.7552,-2.7553,0,0,0,0,0,0,0,0,-2.7537,-2.754,-2.7558,-2.7556,-2.7554,-2.7558,-2.7567,-2.7588,-2.754,-2.7544,-2.7535,-2.7533,-2.7549,-2.7551,-2.7556,-2.7597,-2.7598,-2.7552,-2.7553,-2.7554,-2.7555,0,0,0,0,0,0,0,-2.7536,-2.754,-2.7579,-2.7558,-2.7556,-2.7544,-2.7545,-2.7571,-2.7558,-2.7544,-2.7541,-2.7542,-2.7548,-2.7554,-2.7556,-2.7598,-2.7552,-2.7554,-2.7555,-2.7556,-2.7681,-2.7683,0,0,0,0,0,0,-2.7538,-2.7539,-2.7579,-2.7579,-2.7541,-2.7547,-2.7547,-2.7559,-2.7557,-2.7555,-2.7544,-2.754,-2.7552,-2.7554,-2.7556,-2.7617,-2.7554,-2.7556,-2.7557,-2.7679,-2.7682,-2.7684,0,0,0,0,0,0,-2.7537,-2.7542,-2.7578,-2.7558,-2.7562,-2.755,-2.7563,-2.756,-2.7566,-2.7557,-2.7554,-2.7553,-2.755,-2.7553,-2.7587,-2.7616,-2.7557,-2.7559,-2.7677,-2.768,-2.7683,-2.7738,0,0,0,0,0,0,-2.7536,-2.7542,-2.7562,-2.7559,-2.7563,-2.761,-2.7565,-2.7562,-2.757,-2.7565,-2.7565,-2.7563,-2.7549,-2.7584,-2.7589,-2.7618,-2.7561,-2.7674,-2.7678,-2.7682,-2.7733,-2.7742,-2.775,0,0,0,0,0,-2.7534,-2.7577,-2.7563,-2.7568,-2.7588,-2.7612,-2.7614,-2.7597,-2.7573,-2.7592,-2.7586,-2.7563,-2.7612,-2.7588,-2.7593,-2.7623,-2.7672,-2.7677,-2.7682,-2.773,-2.7741,-2.775,0,0,0,0,0,0,-2.7583,-2.7576,-2.7561,-2.7604,-2.7609,-2.7604,-2.7628,-2.7609,-2.7621,-2.7616,-2.7594,-2.7594,-2.7632,-2.7631,-2.7604,-2.7673,-2.7638,-2.7644,-2.7673,-2.7683,-2.7691,-2.7691,-2.7562,0,0,0,0,0,-2.7599,-2.7619,-2.7612,-2.765,-2.7654,-2.7641,-2.765,-2.7637,-2.7641,-2.7643,-2.7639,-2.7643,-2.766,-2.7671,-2.7686,-2.7732,-2.7732,-2.7755,-2.7764,-2.7771,-2.7777,-2.7802,-2.7812,-2.7699,-2.7699,-2.7699,0,0,-2.7632,-2.763,-2.7645,-2.766,-2.7662,-2.7684,-2.7643,-2.7667,-2.7682,-2.7646,-2.7678,-2.7676,-2.7679,-2.772,-2.7738,-2.772,-2.7807,-2.7777,-2.7782,-2.7784,-2.7807,-2.7818,-2.7828,-2.7702,-2.7702,-2.7701,0,0,-2.7703,-2.7704,-2.7737,-2.774,-2.7743,-2.7734,-2.7742,-2.774,-2.7737,-2.7769,-2.7742,-2.776,-2.7788,-2.7792,-2.7798,-2.787,-2.7849,-2.7875,-2.7919,-2.7944,-2.7953,-2.7961,-2.7987,-2.7997,-2.7881,-2.7881,-2.7881,0,-2.7744,-2.7775,-2.7756,-2.7782,-2.779,-2.7758,-2.7791,-2.7794,-2.7802,-2.7808,-2.7788,-2.7823,-2.7823,-2.7865,-2.7882,-2.7888,-2.7896,-2.7876,-2.7953,-2.7961,-2.7968,-2.7993,-2.8003,-2.7884,-2.7884,-2.7883,-2.7883,0,-2.7825,-2.7847,-2.7873,-2.7882,-2.7892,-2.7922,-2.7907,-2.7919,-2.7905,-2.7898,-2.793,-2.7929,-2.7943,-2.7952,-2.7937,-2.7991,-2.798,-2.7957,-2.7922,-2.7982,-2.8005,-2.8014,-2.7888,-2.7887,-2.7886,-2.7886,0,0,-2.7929,-2.7926,-2.7936,-2.794,-2.7941,-2.7958,-2.7985,-2.7999,-2.8011,-2.8017,-2.804,-2.8064,-2.8043,-2.8049,-2.8035,-2.8057,-2.8114,-2.8031,-2.803,-2.8047,-2.8174,-2.8192,-2.8204,-2.81,-2.8102,-2.8103,-2.8174,0,-2.7999,-2.8047,-2.803,-2.8078,-2.8099,-2.8068,-2.8092,-2.8095,-2.8089,-2.8105,-2.8098,-2.8116,-2.8086,-2.809,-2.811,-2.8103,-2.814,-2.8098,-2.8122,-2.8123,-2.8123,-2.8216,-2.8235,-2.8302,-2.8183,-2.8184,-2.8185,0,-2.8088,-2.8098,-2.8149,-2.8147,-2.8155,-2.8177,-2.8188,-2.8203,-2.8206,-2.82,-2.8207,-2.8188,-2.8215,-2.8179,-2.8215,-2.8187,-2.8195,-2.8194,-2.8196,-2.8198,-2.8159,-2.8221,-2.8323,-2.8333,-2.8199,-2.8198,-2.8197,0,-2.816,-2.8186,-2.822,-2.8224,-2.8222,-2.8238,-2.8238,-2.8239,-2.8248,-2.8257,-2.8263,-2.8275,-2.8283,-2.8292,-2.8277,-2.8252,-2.8316,-2.8278,-2.8312,-2.8313,-2.8328,-2.8327,-2.8433,-2.8332,-2.8332,-2.8331,-2.8331,0,-2.8241,-2.8273,-2.8252,-2.8273,-2.8308,-2.8288,-2.8323,-2.832,-2.8321,-2.834,-2.8314,-2.8333,-2.8311,-2.8328,-2.8316,-2.8348,-2.8351,-2.8347,-2.8344,-2.835,-2.8351,-2.8356,-2.8352,-2.8334,-2.8334,-2.8333,-2.8333,0,-2.8327,-2.8314,-2.8349,-2.8344,-2.8344,-2.837,-2.8366,-2.8385,-2.8376,-2.8401,-2.8406,-2.8393,-2.8411,-2.8397,-2.8415,-2.8406,-2.845,-2.8439,-2.8449,-2.8446,-2.8481,-2.8479,-2.8595,-2.8609,-2.8498,-2.8499,-2.85,0,-2.838,-2.8405,-2.8402,-2.8414,-2.8415,-2.8434,-2.8443,-2.8424,-2.8434,-2.8439,-2.8458,-2.8474,-2.8486,-2.8516,-2.8508,-2.8522,-2.8512,-2.8552,-2.8514,-2.8519,-2.8513,-2.8513,-2.8515,-2.856,-2.8561,-2.8562,-2.8563,0,-2.8476,-2.8469,-2.8483,-2.8496,-2.8508,-2.8516,-2.8523,-2.8533,-2.8514,-2.8527,-2.8545,-2.8555,-2.8573,-2.8589,-2.86,-2.8599,-2.8578,-2.8575,-2.8583,-2.8591,-2.8596,-2.8594,-2.8471,-2.8572,-2.8572,-2.8571,-2.857,-2.857,-2.8549,-2.8569,-2.857,-2.8587,-2.859,-2.8597,-2.8615,-2.8608,-2.8623,-2.8637,-2.8624,-2.8647,-2.8648,-2.866,-2.8662,-2.8679,-2.8663,-2.8675,-2.8679,-2.8682,-2.8688,-2.8592,-2.8681,-2.8681,-2.8681,-2.868,-2.868,0,-2.8644,-2.8643,-2.8659,-2.8669,-2.8683,-2.8661,-2.8667,-2.868,-2.87,-2.8703,-2.8715,-2.8737,-2.8752,-2.8745,-2.8759,-2.8774,-2.8765,-2.8778,-2.8777,-2.8778,-2.8701,-2.8693,-2.8785,-2.8785,-2.8785,-2.8785,-2.8785,-2.8785,-2.8695,-2.8729,-2.8721,-2.8755,-2.8754,-2.8776,-2.8781,-2.8787,-2.879,-2.8815,-2.8828,-2.8823,-2.8822,-2.8835,-2.8849,-2.8846,-2.8853,-2.887,-2.8864,-2.8793,-2.8783,-2.8773,-2.8765,-2.8871,-2.8872,-2.8939,-2.894,-2.894]}]]